M I D A S
Marine Information and Data Acquisition System
Tripno 2215 of the Zeeleeuw from 2011-11-18 06:19:57 to 2011-11-18 14:05:12
Back to CruiseResearch ActivitiesStationsMapUnderway DataData graphs

EquipmentUnitsComments
TimeDGPSUTC
LatitudeDGPSDM.mWGS84
LongitudeDGPSDM.mWGS84
SpeedMeteo Stationm/sRelative wind speed
DirectionMeteo StationdegRelative wind direction
TemperatureMeteo Stationdeg CelciusAir temperature
PressureMeteo StationPaAtmospheric pressure
HumidityMeteo Station%Relative humidity
Missing or incorrect values are displayed as -999
Metereological data collected by the RV Zeeleeuw from 2011-11-18 06:26:42 to 2011-11-18 14:21:20
                                                                                    Next 1000 lines
Time Latitude Longitude Speed Direction Temperature Pressure Humidity
2011-11-18 06:26:51 51°13.639 2°56.019 -999 348 5.7 102130 53
2011-11-18 06:26:56 51°13.639 2°56.019 -999 348 5.7 102130 53
2011-11-18 06:27:01 51°13.639 2°56.019 -999 353 5.7 102120 53
2011-11-18 06:27:06 51°13.639 2°56.019 -999 357 5.7 102120 53
2011-11-18 06:27:11 51°13.64 2°56.019 -999 347 5.7 102130 53
2011-11-18 06:27:16 51°13.64 2°56.019 -999 355 5.7 102130 53
2011-11-18 06:27:20 51°13.64 2°56.019 -999 359 5.7 102120 54
2011-11-18 06:27:26 51°13.64 2°56.019 -999 360 5.7 102120 54
2011-11-18 06:27:31 51°13.639 2°56.02 -999 351 5.7 102130 53
2011-11-18 06:27:35 51°13.64 2°56.019 -999 352 5.7 102130 53
2011-11-18 06:27:40 51°13.64 2°56.02 -999 359 5.7 102130 54
2011-11-18 06:27:45 51°13.639 2°56.02 -999 2 5.7 102130 54
2011-11-18 06:27:51 51°13.639 2°56.02 -999 356 5.7 102130 53
2011-11-18 06:27:55 51°13.64 2°56.019 -999 356 5.7 102130 53
2011-11-18 06:28:00 51°13.64 2°56.02 -999 349 5.7 102130 54
2011-11-18 06:28:05 51°13.64 2°56.019 -999 1 5.7 102130 54
2011-11-18 06:28:10 51°13.641 2°56.019 -999 4 5.7 102130 53
2011-11-18 06:28:15 51°13.64 2°56.019 -999 352 5.7 102130 53
2011-11-18 06:28:19 51°13.64 2°56.02 -999 355 5.7 102130 54
2011-11-18 06:28:25 51°13.64 2°56.02 -999 359 5.7 102130 54
2011-11-18 06:28:30 51°13.64 2°56.019 -999 355 5.7 102130 53
2011-11-18 06:28:35 51°13.64 2°56.019 -999 358 5.7 102130 53
2011-11-18 06:28:40 51°13.639 2°56.019 -999 356 5.7 102130 53
2011-11-18 06:28:45 51°13.639 2°56.019 -999 354 5.7 102130 53
2011-11-18 06:28:51 51°13.64 2°56.019 -999 348 5.7 102130 52
2011-11-18 06:28:56 51°13.64 2°56.019 -999 282 5.7 102130 52
2011-11-18 06:29:00 51°13.64 2°56.019 -999 358 5.7 102130 54
2011-11-18 06:29:06 51°13.64 2°56.019 -999 358 5.7 102130 54
2011-11-18 06:29:11 51°13.64 2°56.019 -999 354 5.7 102130 53
2011-11-18 06:29:16 51°13.64 2°56.019 -999 353 5.7 102130 53
2011-11-18 06:29:20 51°13.64 2°56.02 -999 357 5.7 102130 53
2011-11-18 06:29:26 51°13.639 2°56.02 -999 355 5.7 102130 53
2011-11-18 06:29:31 51°13.638 2°56.019 -999 -999 5.7 102130 54
2011-11-18 06:29:36 51°13.638 2°56.018 -999 -999 5.7 102130 54
2011-11-18 06:29:40 51°13.638 2°56.018 -999 356 5.7 102130 53
2011-11-18 06:29:46 51°13.639 2°56.019 -999 357 5.7 102130 53
2011-11-18 06:29:50 51°13.64 2°56.019 -999 340 5.7 102130 53
2011-11-18 06:29:56 51°13.64 2°56.019 -999 282 5.7 102130 53
2011-11-18 06:30:00 51°13.639 2°56.019 -999 346 5.7 102130 53
2011-11-18 06:30:05 51°13.639 2°56.019 -999 349 5.7 102130 53
2011-11-18 06:30:10 51°13.639 2°56.019 -999 3 5.7 102130 53
2011-11-18 06:30:15 51°13.639 2°56.019 -999 349 5.7 102130 53
2011-11-18 06:30:20 51°13.639 2°56.019 -999 348 5.7 102130 53
2011-11-18 06:30:25 51°13.639 2°56.019 -999 282 5.7 102130 53
2011-11-18 06:30:30 51°13.639 2°56.019 -999 350 5.7 102130 53
2011-11-18 06:30:35 51°13.638 2°56.018 -999 350 5.7 102130 53
2011-11-18 06:30:40 51°13.638 2°56.018 -999 346 5.7 102130 53
2011-11-18 06:30:45 51°13.638 2°56.019 -999 282 5.7 102130 53
2011-11-18 06:30:50 51°13.638 2°56.019 -999 352 5.7 102130 54
2011-11-18 06:30:55 51°13.638 2°56.018 -999 359 5.7 102130 54
2011-11-18 06:31:00 51°13.638 2°56.018 -999 346 5.7 102130 53
2011-11-18 06:31:05 51°13.638 2°56.018 -999 282 5.7 102130 53
2011-11-18 06:31:10 51°13.638 2°56.019 -999 349 5.7 102130 53
2011-11-18 06:31:15 51°13.637 2°56.018 -999 354 5.7 102130 53
2011-11-18 06:31:21 51°13.634 2°56.016 -999 352 5.7 102130 53
2011-11-18 06:31:25 51°13.634 2°56.016 -999 348 5.7 102130 53
2011-11-18 06:31:30 51°13.633 2°56.016 -999 349 5.7 102130 52
2011-11-18 06:31:35 51°13.633 2°56.016 -999 282 5.7 102130 52
2011-11-18 06:31:40 51°13.634 2°56.016 -999 344 5.7 102130 53
2011-11-18 06:31:46 51°13.635 2°56.017 -999 358 5.7 102130 53
2011-11-18 06:31:51 51°13.635 2°56.017 -999 345 5.7 102130 53
2011-11-18 06:31:56 51°13.635 2°56.017 -999 350 5.7 102130 53
2011-11-18 06:32:01 51°13.636 2°56.017 -999 355 5.6 102130 53
2011-11-18 06:32:06 51°13.637 2°56.017 -999 282 5.6 102130 53
2011-11-18 06:32:10 51°13.637 2°56.017 -999 353 5.7 102130 53
2011-11-18 06:32:16 51°13.637 2°56.017 -999 351 5.7 102130 53
2011-11-18 06:32:20 51°13.637 2°56.017 -999 352 5.7 102130 53
2011-11-18 06:32:26 51°13.637 2°56.017 -999 354 5.7 102130 53
2011-11-18 06:32:30 51°13.637 2°56.017 -999 355 5.7 102130 54
2011-11-18 06:32:36 51°13.638 2°56.018 -999 282 5.7 102130 54
2011-11-18 06:32:40 51°13.639 2°56.018 -999 345 5.7 102130 53
2011-11-18 06:32:45 51°13.638 2°56.018 -999 358 5.7 102130 53
2011-11-18 06:32:50 51°13.638 2°56.018 -999 355 5.7 102130 53
2011-11-18 06:32:56 51°13.638 2°56.018 -999 2 5.7 102130 53
2011-11-18 06:33:01 51°13.638 2°56.018 -999 350 5.7 102130 53
2011-11-18 06:33:06 51°13.638 2°56.018 -999 349 5.7 102130 53
2011-11-18 06:33:11 51°13.637 2°56.018 -999 346 5.6 102130 53
2011-11-18 06:33:15 51°13.637 2°56.018 -999 282 5.6 102130 53
2011-11-18 06:33:21 51°13.636 2°56.018 -999 352 5.7 102130 54
2011-11-18 06:33:26 51°13.636 2°56.018 -999 353 5.7 102130 54
2011-11-18 06:33:31 51°13.637 2°56.018 -999 355 5.7 102130 53
2011-11-18 06:33:36 51°13.637 2°56.018 -999 1 5.7 102130 53
2011-11-18 06:33:41 51°13.637 2°56.018 -999 1 5.7 102130 53
2011-11-18 06:33:46 51°13.636 2°56.018 -999 2 5.7 102130 53
2011-11-18 06:33:51 51°13.635 2°56.018 -999 4 5.7 102130 53
2011-11-18 06:33:56 51°13.635 2°56.018 -999 8 5.7 102130 53
2011-11-18 06:34:00 51°13.635 2°56.018 -999 353 5.7 102130 53
2011-11-18 06:34:05 51°13.635 2°56.017 -999 -999 5.7 102130 53
2011-11-18 06:34:10 51°13.635 2°56.017 -999 358 5.7 102130 52
2011-11-18 06:34:15 51°13.635 2°56.017 -999 352 5.7 102130 52
2011-11-18 06:34:20 51°13.635 2°56.017 -999 359 5.7 102130 54
2011-11-18 06:34:25 51°13.634 2°56.017 -999 3 5.7 102130 54
2011-11-18 06:34:30 51°13.634 2°56.017 -999 11 5.7 102130 53
2011-11-18 06:34:35 51°13.634 2°56.016 -999 10 5.7 102130 53
2011-11-18 06:34:40 51°13.634 2°56.014 0.1 24 5.7 102130 53
2011-11-18 06:34:45 51°13.635 2°56.011 0.1 30 5.7 102130 53
2011-11-18 06:34:51 51°13.636 2°56.006 0.1 24 5.7 102130 53
2011-11-18 06:34:55 51°13.636 2°56.002 -999 22 5.7 102130 53
2011-11-18 06:35:00 51°13.637 2°55.997 -999 19 5.7 102130 53
2011-11-18 06:35:07 51°13.639 2°55.988 -999 27 5.7 102130 53
2011-11-18 06:35:13 51°13.64 2°55.98 -999 19 5.7 102130 53
2011-11-18 06:35:19 51°13.642 2°55.971 -999 21 5.7 102130 53
2011-11-18 06:35:24 51°13.644 2°55.964 -999 17 5.7 102130 53
2011-11-18 06:35:29 51°13.645 2°55.957 -999 20 5.7 102130 53
2011-11-18 06:35:33 51°13.647 2°55.951 1.2 24 5.7 102130 53
2011-11-18 06:35:39 51°13.649 2°55.942 0.2 17 5.7 102130 53
2011-11-18 06:35:44 51°13.65 2°55.936 0.1 16 5.7 102130 54
2011-11-18 06:35:49 51°13.651 2°55.93 -999 16 5.7 102130 54
2011-11-18 06:35:54 51°13.652 2°55.927 0.2 4 5.7 102130 53
2011-11-18 06:35:59 51°13.652 2°55.926 0.1 356 5.7 102130 53
2011-11-18 06:36:04 51°13.652 2°55.925 -999 354 5.7 102130 53
2011-11-18 06:36:09 51°13.654 2°55.922 -999 352 5.7 102130 53
2011-11-18 06:36:14 51°13.655 2°55.92 -999 358 5.7 102130 53
2011-11-18 06:36:19 51°13.656 2°55.917 -999 352 5.7 102130 53
2011-11-18 06:36:24 51°13.657 2°55.913 -999 11 5.7 102130 53
2011-11-18 06:36:29 51°13.659 2°55.908 -999 18 5.7 102130 53
2011-11-18 06:36:34 51°13.661 2°55.904 -999 22 5.6 102130 53
2011-11-18 06:36:39 51°13.663 2°55.898 -999 19 5.6 102130 53
2011-11-18 06:36:44 51°13.666 2°55.893 2.5 9 5.7 102130 53
2011-11-18 06:36:49 51°13.669 2°55.886 1.6 7 5.7 102130 53
2011-11-18 06:36:54 51°13.673 2°55.881 2 12 5.7 102130 52
2011-11-18 06:36:59 51°13.675 2°55.874 0.3 13 5.7 102130 52
2011-11-18 06:37:04 51°13.678 2°55.867 0.1 11 5.7 102140 55
2011-11-18 06:37:09 51°13.681 2°55.86 0.1 10 5.7 102140 55
2011-11-18 06:37:13 51°13.683 2°55.855 -999 23 5.7 102130 53
2011-11-18 06:37:19 51°13.687 2°55.847 -999 24 5.7 102130 53
2011-11-18 06:37:24 51°13.691 2°55.84 -999 18 5.6 102130 53
2011-11-18 06:37:29 51°13.694 2°55.833 -999 18 5.6 102130 53
2011-11-18 06:37:33 51°13.696 2°55.828 -999 9 5.6 102130 53
2011-11-18 06:37:39 51°13.7 2°55.819 -999 4 5.6 102130 53
2011-11-18 06:37:44 51°13.704 2°55.812 -999 9 5.6 102130 53
2011-11-18 06:37:49 51°13.707 2°55.806 -999 6 5.6 102130 53
2011-11-18 06:37:53 51°13.71 2°55.8 -999 9 5.6 102130 53
2011-11-18 06:37:58 51°13.715 2°55.793 -999 16 5.6 102130 53
2011-11-18 06:38:04 51°13.72 2°55.784 -999 17 5.6 102130 53
2011-11-18 06:38:09 51°13.724 2°55.777 -999 21 5.6 102130 53
2011-11-18 06:38:14 51°13.729 2°55.77 -999 26 5.6 102130 53
2011-11-18 06:38:19 51°13.733 2°55.763 -999 25 5.6 102130 53
2011-11-18 06:38:24 51°13.738 2°55.756 -999 354 5.6 102130 53
2011-11-18 06:38:29 51°13.742 2°55.749 -999 7 5.6 102130 53
2011-11-18 06:38:34 51°13.747 2°55.742 -999 16 5.6 102130 53
2011-11-18 06:38:39 51°13.752 2°55.734 -999 41 5.6 102130 53
2011-11-18 06:38:44 51°13.757 2°55.727 -999 15 5.6 102130 53
2011-11-18 06:38:49 51°13.762 2°55.719 -999 24 5.6 102130 53
2011-11-18 06:38:54 51°13.768 2°55.712 -999 25 5.7 102130 53
2011-11-18 06:38:59 51°13.774 2°55.704 -999 15 5.7 102130 53
2011-11-18 06:39:04 51°13.779 2°55.696 -999 16 5.7 102130 53
2011-11-18 06:39:09 51°13.785 2°55.689 -999 12 5.7 102130 53
2011-11-18 06:39:14 51°13.79 2°55.681 0.1 4 5.7 102130 53
2011-11-18 06:39:19 51°13.795 2°55.674 1.1 359 5.7 102130 53
2011-11-18 06:39:24 51°13.801 2°55.667 0.1 358 5.7 102130 53
2011-11-18 06:39:29 51°13.806 2°55.66 1.7 355 5.7 102130 53
2011-11-18 06:39:34 51°13.812 2°55.654 0.2 353 5.7 102130 51
2011-11-18 06:39:38 51°13.816 2°55.649 0.1 353 5.7 102130 51
2011-11-18 06:39:43 51°13.822 2°55.644 0.4 360 5.6 102130 52
2011-11-18 06:39:49 51°13.828 2°55.637 0.1 360 5.6 102130 52
2011-11-18 06:39:53 51°13.833 2°55.633 0.1 359 5.6 102130 53
2011-11-18 06:39:58 51°13.838 2°55.628 0.1 350 5.6 102130 53
2011-11-18 06:40:04 51°13.845 2°55.624 0.1 339 5.6 102130 53
2011-11-18 06:40:09 51°13.852 2°55.62 0.1 282 5.6 102130 53
2011-11-18 06:40:13 51°13.857 2°55.617 0.1 339 5.6 102130 53
2011-11-18 06:40:18 51°13.863 2°55.615 0.1 282 5.6 102130 53
2011-11-18 06:40:24 51°13.871 2°55.614 0.1 339 5.7 102130 53
2011-11-18 06:40:29 51°13.877 2°55.612 0.1 282 5.7 102130 53
2011-11-18 06:40:34 51°13.883 2°55.612 0.1 22 5.7 102130 53
2011-11-18 06:40:39 51°13.889 2°55.611 -999 278 5.7 102130 53
2011-11-18 06:40:43 51°13.894 2°55.611 1.4 19 5.7 102130 53
2011-11-18 06:40:49 51°13.902 2°55.611 1.3 282 5.7 102130 53
2011-11-18 06:40:54 51°13.907 2°55.612 1.9 21 5.7 102130 53
2011-11-18 06:40:59 51°13.912 2°55.614 1.2 285 5.7 102130 53
2011-11-18 06:41:04 51°13.917 2°55.616 2.8 19 5.7 102130 53
2011-11-18 06:41:09 51°13.922 2°55.619 2.7 284 5.7 102130 53
2011-11-18 06:41:14 51°13.927 2°55.621 2.3 21 5.7 102130 53
2011-11-18 06:41:19 51°13.932 2°55.625 3 280 5.7 102130 53
2011-11-18 06:41:23 51°13.936 2°55.628 3.3 256 5.7 102120 55
2011-11-18 06:41:29 51°13.941 2°55.632 0.3 282 5.7 102120 55
2011-11-18 06:41:34 51°13.946 2°55.637 0.1 250 5.7 102130 53
2011-11-18 06:41:39 51°13.95 2°55.641 0.1 282 5.7 102130 53
2011-11-18 06:41:44 51°13.954 2°55.646 -999 256 5.7 102130 53
2011-11-18 06:41:49 51°13.958 2°55.65 -999 282 5.7 102130 53
2011-11-18 06:41:54 51°13.961 2°55.656 -999 248 5.6 102120 53
2011-11-18 06:41:59 51°13.964 2°55.661 -999 282 5.6 102120 53
2011-11-18 06:42:04 51°13.967 2°55.665 -999 252 5.7 102120 53
2011-11-18 06:42:08 51°13.968 2°55.669 0.5 279 5.7 102120 53
2011-11-18 06:42:13 51°13.97 2°55.673 4 19 5.7 102120 52
2011-11-18 06:42:18 51°13.972 2°55.676 4.4 286 5.7 102120 52
2011-11-18 06:42:23 51°13.973 2°55.678 3.6 19 5.7 102120 54
2011-11-18 06:42:28 51°13.974 2°55.679 4.3 279 5.7 102120 54
2011-11-18 06:42:33 51°13.975 2°55.678 4.6 250 5.7 102120 52
2011-11-18 06:42:39 51°13.976 2°55.677 3.9 286 5.7 102120 52
2011-11-18 06:42:44 51°13.977 2°55.674 3.1 251 5.7 102120 54
2011-11-18 06:42:49 51°13.977 2°55.671 0.3 281 5.7 102120 54
2011-11-18 06:42:53 51°13.978 2°55.667 0.3 253 5.7 102120 54
2011-11-18 06:42:58 51°13.979 2°55.661 0.1 282 5.7 102120 54
2011-11-18 06:43:03 51°13.981 2°55.654 2.2 253 5.7 102120 53
2011-11-18 06:43:09 51°13.983 2°55.644 3.8 283 5.7 102120 53
2011-11-18 06:43:13 51°13.986 2°55.637 3.4 253 5.7 102120 53
2011-11-18 06:43:18 51°13.989 2°55.627 3.7 279 5.7 102120 53
2011-11-18 06:43:23 51°13.992 2°55.617 2.9 263 5.7 102120 53
2011-11-18 06:43:28 51°13.996 2°55.606 2.9 280 5.7 102120 53
2011-11-18 06:43:33 51°14 2°55.595 0.2 261 5.7 102130 52
2011-11-18 06:43:37 51°14.003 2°55.585 0.1 282 5.7 102130 52
2011-11-18 06:43:42 51°14.008 2°55.573 -999 258 5.7 102120 52
2011-11-18 06:43:47 51°14.013 2°55.561 -999 282 5.7 102120 52
2011-11-18 06:43:53 51°14.019 2°55.546 -999 256 5.7 102120 53
2011-11-18 06:43:57 51°14.024 2°55.536 -999 282 5.7 102120 53
2011-11-18 06:44:02 51°14.029 2°55.524 -999 257 5.7 102120 53
2011-11-18 06:44:07 51°14.036 2°55.512 -999 282 5.7 102120 53
2011-11-18 06:44:12 51°14.043 2°55.502 -999 257 5.7 102130 53
2011-11-18 06:44:17 51°14.05 2°55.492 -999 282 5.7 102130 53
2011-11-18 06:44:22 51°14.058 2°55.483 -999 268 5.7 102130 53
2011-11-18 06:44:27 51°14.066 2°55.475 -999 282 5.7 102130 53
2011-11-18 06:44:32 51°14.073 2°55.467 -999 269 5.7 102130 53
2011-11-18 06:44:37 51°14.081 2°55.459 -999 278 5.7 102130 53
2011-11-18 06:44:41 51°14.088 2°55.454 -999 27 5.7 102120 53
2011-11-18 06:44:46 51°14.096 2°55.446 0.4 78 5.7 102120 53
2011-11-18 06:44:53 51°14.108 2°55.437 0.1 23 5.7 102130 52
2011-11-18 06:44:58 51°14.116 2°55.43 0.1 78 5.7 102130 52
2011-11-18 06:45:02 51°14.123 2°55.425 -999 23 5.8 102130 55
2011-11-18 06:45:07 51°14.132 2°55.418 -999 78 5.8 102130 55
2011-11-18 06:45:12 51°14.141 2°55.412 -999 23 5.8 102130 53
2011-11-18 06:45:18 51°14.151 2°55.404 -999 78 5.8 102130 53
2011-11-18 06:45:23 51°14.16 2°55.397 -999 267 5.7 102130 53
2011-11-18 06:45:29 51°14.17 2°55.389 -999 78 5.7 102130 53
2011-11-18 06:45:34 51°14.179 2°55.383 -999 23 5.7 102130 53
2011-11-18 06:45:38 51°14.187 2°55.377 -999 78 5.7 102130 53
2011-11-18 06:45:43 51°14.196 2°55.371 -999 23 5.7 102130 53
2011-11-18 06:45:48 51°14.205 2°55.364 -999 78 5.7 102130 53
2011-11-18 06:45:54 51°14.217 2°55.356 -999 23 5.7 102130 53
2011-11-18 06:45:59 51°14.226 2°55.349 -999 78 5.7 102130 53
2011-11-18 06:46:04 51°14.235 2°55.342 -999 23 5.7 102130 53
2011-11-18 06:46:08 51°14.242 2°55.336 -999 78 5.7 102130 53
2011-11-18 06:46:14 51°14.253 2°55.327 -999 23 5.7 102130 53
2011-11-18 06:46:19 51°14.263 2°55.319 -999 78 5.7 102130 53
2011-11-18 06:46:23 51°14.271 2°55.312 -999 23 5.7 102120 53
2011-11-18 06:46:29 51°14.282 2°55.302 -999 282 5.7 102120 53
2011-11-18 06:46:34 51°14.292 2°55.294 -999 27 5.7 102130 53
2011-11-18 06:46:39 51°14.302 2°55.285 -999 82 5.7 102130 53
2011-11-18 06:46:44 51°14.312 2°55.277 -999 24 5.7 102120 53
2011-11-18 06:46:49 51°14.322 2°55.268 -999 54 5.7 102120 53
2011-11-18 06:46:54 51°14.332 2°55.259 -999 23 5.7 102120 53
2011-11-18 06:46:59 51°14.343 2°55.251 -999 54 5.7 102120 53
2011-11-18 06:47:04 51°14.353 2°55.242 -999 25 5.7 102130 53
2011-11-18 06:47:09 51°14.364 2°55.233 -999 54 5.7 102130 53
2011-11-18 06:47:14 51°14.374 2°55.223 -999 23 5.7 102120 53
2011-11-18 06:47:19 51°14.384 2°55.213 -999 54 5.7 102120 53
2011-11-18 06:47:24 51°14.394 2°55.202 -999 23 5.7 102120 53
2011-11-18 06:47:28 51°14.403 2°55.193 -999 54 5.7 102120 53
2011-11-18 06:47:34 51°14.415 2°55.179 -999 23 5.7 102120 52
2011-11-18 06:47:39 51°14.425 2°55.168 -999 54 5.7 102120 52
2011-11-18 06:47:44 51°14.435 2°55.156 -999 23 5.7 102120 53
2011-11-18 06:47:48 51°14.443 2°55.146 -999 54 5.7 102120 53
2011-11-18 06:47:53 51°14.453 2°55.133 -999 23 5.7 102120 53
2011-11-18 06:47:58 51°14.463 2°55.121 -999 311 5.7 102120 53
2011-11-18 06:48:03 51°14.473 2°55.108 -999 269 5.7 102120 53
2011-11-18 06:48:08 51°14.484 2°55.095 -999 306 5.7 102120 53
2011-11-18 06:48:14 51°14.496 2°55.079 -999 268 5.7 102120 53
2011-11-18 06:48:19 51°14.507 2°55.065 -999 306 5.7 102120 53
2011-11-18 06:48:24 51°14.518 2°55.051 -999 267 5.7 102120 53
2011-11-18 06:48:29 51°14.529 2°55.038 -999 306 5.7 102120 53
2011-11-18 06:48:33 51°14.538 2°55.027 -999 266 5.7 102120 53
2011-11-18 06:48:38 51°14.549 2°55.013 -999 308 5.7 102120 53
2011-11-18 06:48:43 51°14.561 2°55 -999 27 5.7 102110 53
2011-11-18 06:48:48 51°14.574 2°54.987 -999 311 5.7 102110 53
2011-11-18 06:48:53 51°14.586 2°54.974 -999 268 5.7 102110 53
2011-11-18 06:48:57 51°14.596 2°54.963 -999 58 5.7 102110 53
2011-11-18 06:49:03 51°14.61 2°54.945 -999 25 5.7 102120 53
2011-11-18 06:49:08 51°14.622 2°54.93 -999 78 5.7 102120 53
2011-11-18 06:49:13 51°14.634 2°54.915 -999 23 5.7 102120 53
2011-11-18 06:49:17 51°14.645 2°54.904 -999 54 5.7 102120 53
2011-11-18 06:49:23 51°14.66 2°54.888 -999 264 5.8 102110 53
2011-11-18 06:49:28 51°14.673 2°54.873 -999 306 5.8 102110 53
2011-11-18 06:49:33 51°14.687 2°54.86 -999 262 5.8 102110 53
2011-11-18 06:49:37 51°14.697 2°54.849 -999 306 5.8 102110 53
2011-11-18 06:49:42 51°14.71 2°54.836 -999 261 5.8 102120 53
2011-11-18 06:49:47 51°14.724 2°54.82 -999 306 5.8 102120 53
2011-11-18 06:49:52 51°14.737 2°54.805 -999 260 5.8 102110 53
2011-11-18 06:49:57 51°14.75 2°54.789 -999 306 5.8 102110 53
2011-11-18 06:50:01 51°14.76 2°54.777 -999 260 5.8 102120 53
2011-11-18 06:50:06 51°14.774 2°54.762 -999 282 5.8 102120 53
2011-11-18 06:50:12 51°14.79 2°54.743 -999 254 5.8 102120 52
2011-11-18 06:50:17 51°14.803 2°54.727 -999 306 5.8 102120 52
2011-11-18 06:50:21 51°14.814 2°54.714 -999 23 5.8 102120 53
2011-11-18 06:50:26 51°14.828 2°54.698 -999 306 5.8 102120 53
2011-11-18 06:50:31 51°14.842 2°54.681 -999 23 5.8 102120 53
2011-11-18 06:50:36 51°14.856 2°54.665 -999 306 5.8 102120 53
2011-11-18 06:50:41 51°14.869 2°54.649 -999 250 5.8 102120 53
2011-11-18 06:50:46 51°14.884 2°54.633 -999 306 5.8 102120 53
2011-11-18 06:50:51 51°14.898 2°54.617 -999 250 5.8 102120 53
2011-11-18 06:50:56 51°14.912 2°54.601 -999 306 5.8 102120 53
2011-11-18 06:51:01 51°14.927 2°54.585 -999 249 5.8 102120 53
2011-11-18 06:51:05 51°14.939 2°54.573 -999 282 5.8 102120 53
2011-11-18 06:51:10 51°14.954 2°54.558 -999 23 5.8 102120 53
2011-11-18 06:51:15 51°14.969 2°54.543 -999 306 5.8 102120 53
2011-11-18 06:51:20 51°14.984 2°54.529 -999 251 5.8 102120 53
2011-11-18 06:51:25 51°14.999 2°54.513 -999 306 5.8 102120 53
2011-11-18 06:51:30 51°15.014 2°54.498 -999 250 5.9 102120 53
2011-11-18 06:51:35 51°15.028 2°54.482 0.1 309 5.9 102120 53
2011-11-18 06:51:41 51°15.045 2°54.462 0.1 251 5.9 102120 54
2011-11-18 06:51:45 51°15.055 2°54.448 0.6 308 5.9 102120 54
2011-11-18 06:51:50 51°15.068 2°54.429 0.1 251 5.9 102120 53
2011-11-18 06:51:55 51°15.081 2°54.411 0.1 306 5.9 102120 53
2011-11-18 06:52:00 51°15.094 2°54.392 -999 252 5.8 102120 53
2011-11-18 06:52:05 51°15.106 2°54.373 -999 306 5.8 102120 53
2011-11-18 06:52:10 51°15.119 2°54.354 2.9 252 5.9 102120 53
2011-11-18 06:52:15 51°15.132 2°54.335 3.1 304 5.9 102120 53
2011-11-18 06:52:20 51°15.145 2°54.316 0.3 249 5.9 102120 54
2011-11-18 06:52:25 51°15.159 2°54.297 0.8 304 5.9 102120 54
2011-11-18 06:52:30 51°15.172 2°54.281 0.1 253 5.9 102120 52
2011-11-18 06:52:35 51°15.187 2°54.265 0.1 306 5.9 102120 52
2011-11-18 06:52:41 51°15.204 2°54.246 1.1 259 5.9 102120 54
2011-11-18 06:52:46 51°15.218 2°54.23 0.3 303 5.9 102120 54
2011-11-18 06:52:50 51°15.229 2°54.217 0.1 260 5.9 102120 52
2011-11-18 06:52:56 51°15.246 2°54.197 0.1 306 5.9 102120 52
2011-11-18 06:53:01 51°15.261 2°54.181 -999 256 5.9 102120 53
2011-11-18 06:53:06 51°15.275 2°54.164 -999 306 5.9 102120 53
2011-11-18 06:53:10 51°15.286 2°54.151 2.4 252 5.9 102120 53
2011-11-18 06:53:15 51°15.3 2°54.134 2.4 308 5.9 102120 53
2011-11-18 06:53:20 51°15.315 2°54.118 2 256 5.9 102120 54
2011-11-18 06:53:26 51°15.331 2°54.098 1.9 303 5.9 102120 54
2011-11-18 06:53:30 51°15.343 2°54.084 3 255 6 102120 55
2011-11-18 06:53:35 51°15.356 2°54.068 1.9 301 6 102120 55
2011-11-18 06:53:40 51°15.37 2°54.051 2.6 251 6 102120 55
2011-11-18 06:53:45 51°15.384 2°54.035 0.2 306 6 102120 55
2011-11-18 06:53:50 51°15.399 2°54.018 0.1 254 6 102120 55
2011-11-18 06:53:55 51°15.413 2°54.001 -999 306 6 102120 55
2011-11-18 06:54:00 51°15.426 2°53.984 -999 249 6 102120 53
2011-11-18 06:54:06 51°15.443 2°53.963 -999 306 6 102120 53
2011-11-18 06:54:10 51°15.453 2°53.949 1.7 255 6 102120 53
2011-11-18 06:54:15 51°15.467 2°53.931 2.8 309 6 102120 53
2011-11-18 06:54:20 51°15.48 2°53.913 2.6 254 6 102120 54
2011-11-18 06:54:25 51°15.494 2°53.895 3.9 309 6 102120 54
2011-11-18 06:54:30 51°15.507 2°53.877 3.7 257 6 102120 55
2011-11-18 06:54:35 51°15.52 2°53.859 4 305 6 102120 55
2011-11-18 06:54:40 51°15.533 2°53.841 3.9 257 6 102120 55
2011-11-18 06:54:45 51°15.547 2°53.822 3.6 302 6 102120 55
2011-11-18 06:54:50 51°15.56 2°53.804 3.7 259 6.1 102120 55
2011-11-18 06:54:55 51°15.573 2°53.786 2.4 303 6.1 102120 55
2011-11-18 06:55:00 51°15.587 2°53.768 2.3 254 6 102120 53
2011-11-18 06:55:05 51°15.6 2°53.75 0.3 304 6 102120 53
2011-11-18 06:55:10 51°15.613 2°53.733 2.3 259 6.1 102120 55
2011-11-18 06:55:15 51°15.627 2°53.716 2.7 306 6.1 102120 55
2011-11-18 06:55:20 51°15.641 2°53.699 2.2 258 6.1 102120 55
2011-11-18 06:55:25 51°15.655 2°53.682 0.4 305 6.1 102120 55
2011-11-18 06:55:30 51°15.669 2°53.666 1.3 261 6.1 102120 51
2011-11-18 06:55:36 51°15.687 2°53.647 2.6 305 6.1 102120 51
2011-11-18 06:55:40 51°15.698 2°53.634 2.4 256 6.1 102120 55
2011-11-18 06:55:45 51°15.713 2°53.619 0.3 308 6.1 102120 55
2011-11-18 06:55:50 51°15.728 2°53.603 0.5 257 6.1 102120 54
2011-11-18 06:55:54 51°15.739 2°53.591 1.3 304 6.1 102120 54
2011-11-18 06:56:00 51°15.757 2°53.572 0.8 264 6.1 102120 52
2011-11-18 06:56:05 51°15.772 2°53.556 1.1 305 6.1 102120 52
2011-11-18 06:56:11 51°15.789 2°53.537 2 261 6.1 102120 54
2011-11-18 06:56:15 51°15.801 2°53.524 0.2 307 6.1 102120 54
2011-11-18 06:56:20 51°15.815 2°53.508 0.1 258 6.1 102120 53
2011-11-18 06:56:25 51°15.829 2°53.491 0.1 306 6.1 102120 53
2011-11-18 06:56:30 51°15.843 2°53.475 -999 256 6.1 102120 52
2011-11-18 06:56:36 51°15.86 2°53.454 0.1 306 6.1 102120 52
2011-11-18 06:56:40 51°15.871 2°53.441 0.1 260 6.1 102120 54
2011-11-18 06:56:46 51°15.888 2°53.421 -999 306 6.1 102120 54
2011-11-18 06:56:51 51°15.902 2°53.403 -999 258 6.1 102120 54
2011-11-18 06:56:55 51°15.913 2°53.391 -999 306 6.1 102120 54
2011-11-18 06:57:00 51°15.928 2°53.375 -999 260 6.1 102120 53
2011-11-18 06:57:05 51°15.942 2°53.359 -999 301 6.1 102120 53
2011-11-18 06:57:11 51°15.96 2°53.342 0.1 266 6.1 102120 54
2011-11-18 06:57:15 51°15.972 2°53.331 0.1 306 6.1 102120 54
2011-11-18 06:57:20 51°15.988 2°53.317 0.1 269 6.1 102120 54
2011-11-18 06:57:25 51°16.004 2°53.305 -999 54 6.1 102120 54
2011-11-18 06:57:30 51°16.02 2°53.292 -999 23 6.1 102130 54
2011-11-18 06:57:35 51°16.036 2°53.28 -999 54 6.1 102130 54
2011-11-18 06:57:40 51°16.052 2°53.268 -999 270 6 102130 54
2011-11-18 06:57:45 51°16.068 2°53.256 -999 306 6 102130 54
2011-11-18 06:57:50 51°16.084 2°53.245 -999 26 6 102130 54
2011-11-18 06:57:55 51°16.1 2°53.233 -999 306 6 102130 54
2011-11-18 06:58:00 51°16.116 2°53.222 -999 265 6 102120 54
2011-11-18 06:58:05 51°16.133 2°53.211 -999 306 6 102120 54
2011-11-18 06:58:10 51°16.149 2°53.199 -999 266 6 102130 52
2011-11-18 06:58:15 51°16.165 2°53.188 -999 306 6 102130 52
2011-11-18 06:58:21 51°16.185 2°53.175 -999 264 6 102130 54
2011-11-18 06:58:25 51°16.197 2°53.165 -999 306 6 102130 54
2011-11-18 06:58:30 51°16.213 2°53.154 -999 264 6.1 102130 54
2011-11-18 06:58:35 51°16.23 2°53.142 -999 306 6.1 102130 54
2011-11-18 06:58:40 51°16.246 2°53.131 -999 260 6.1 102130 54
2011-11-18 06:58:45 51°16.262 2°53.119 -999 306 6.1 102130 54
2011-11-18 06:58:51 51°16.281 2°53.106 -999 260 6.1 102130 53
2011-11-18 06:58:56 51°16.298 2°53.094 -999 306 6.1 102130 53
2011-11-18 06:59:00 51°16.31 2°53.084 0.1 259 6.1 102130 54
2011-11-18 06:59:05 51°16.326 2°53.072 0.1 282 6.1 102130 54
2011-11-18 06:59:11 51°16.345 2°53.057 0.1 260 6.1 102130 54
2011-11-18 06:59:16 51°16.36 2°53.044 0.1 306 6.1 102130 54
2011-11-18 06:59:20 51°16.373 2°53.033 0.1 259 6.1 102130 54
2011-11-18 06:59:25 51°16.388 2°53.019 0.1 306 6.1 102130 54
2011-11-18 06:59:31 51°16.406 2°53.001 -999 259 6.1 102130 53
2011-11-18 06:59:36 51°16.422 2°52.988 -999 306 6.1 102130 53
2011-11-18 06:59:40 51°16.434 2°52.976 -999 259 6.1 102130 53
2011-11-18 06:59:45 51°16.449 2°52.962 -999 306 6.1 102130 53
2011-11-18 06:59:50 51°16.464 2°52.948 -999 259 6.1 102130 53
2011-11-18 06:59:56 51°16.482 2°52.931 -999 306 6.1 102130 53
2011-11-18 07:00:00 51°16.494 2°52.92 -999 260 6.1 102120 53
2011-11-18 07:00:05 51°16.51 2°52.907 -999 282 6.1 102120 53
2011-11-18 07:00:10 51°16.526 2°52.894 -999 265 6.2 102120 54
2011-11-18 07:00:15 51°16.542 2°52.881 -999 306 6.2 102120 54
2011-11-18 07:00:20 51°16.558 2°52.869 -999 270 6.2 102130 54
2011-11-18 07:00:25 51°16.574 2°52.857 0.1 49 6.2 102130 54
2011-11-18 07:00:30 51°16.59 2°52.845 0.1 21 6.2 102130 54
2011-11-18 07:00:35 51°16.606 2°52.834 0.1 54 6.2 102130 54
2011-11-18 07:00:40 51°16.623 2°52.823 -999 23 6.2 102130 54
2011-11-18 07:00:46 51°16.643 2°52.81 -999 54 6.2 102130 54
2011-11-18 07:00:51 51°16.659 2°52.799 -999 25 6.2 102130 52
2011-11-18 07:00:56 51°16.676 2°52.788 -999 54 6.2 102130 52
2011-11-18 07:01:00 51°16.689 2°52.778 -999 23 6.2 102130 54
2011-11-18 07:01:06 51°16.708 2°52.765 -999 311 6.2 102130 54
2011-11-18 07:01:10 51°16.721 2°52.755 -999 262 6.2 102130 54
2011-11-18 07:01:16 51°16.74 2°52.742 -999 306 6.2 102130 54
2011-11-18 07:01:20 51°16.753 2°52.733 -999 256 6.1 102130 54
2011-11-18 07:01:25 51°16.77 2°52.721 -999 306 6.1 102130 54
2011-11-18 07:01:31 51°16.789 2°52.708 -999 262 6.2 102130 54
2011-11-18 07:01:36 51°16.805 2°52.697 -999 306 6.2 102130 54
2011-11-18 07:01:40 51°16.818 2°52.688 -999 260 6.2 102130 53
2011-11-18 07:01:45 51°16.834 2°52.676 1.3 301 6.2 102130 53
2011-11-18 07:01:50 51°16.851 2°52.665 0.2 264 6.2 102130 54
2011-11-18 07:01:56 51°16.87 2°52.651 0.1 306 6.2 102130 54
2011-11-18 07:02:00 51°16.883 2°52.642 -999 264 6.2 102130 54
2011-11-18 07:02:05 51°16.899 2°52.63 -999 306 6.2 102130 54
2011-11-18 07:02:10 51°16.915 2°52.618 -999 256 6.2 102130 54
2011-11-18 07:02:16 51°16.935 2°52.604 -999 306 6.2 102130 54
2011-11-18 07:02:20 51°16.948 2°52.594 -999 257 6.2 102130 54
2011-11-18 07:02:25 51°16.963 2°52.581 -999 306 6.2 102130 54
2011-11-18 07:02:30 51°16.979 2°52.569 -999 264 6.2 102130 54
2011-11-18 07:02:35 51°16.995 2°52.556 -999 306 6.2 102130 54
2011-11-18 07:02:40 51°17.011 2°52.544 -999 268 6.2 102120 53
2011-11-18 07:02:45 51°17.027 2°52.531 -999 306 6.2 102120 53
2011-11-18 07:02:50 51°17.043 2°52.519 -999 264 6.2 102130 54
2011-11-18 07:02:56 51°17.062 2°52.503 -999 306 6.2 102130 54
2011-11-18 07:03:00 51°17.075 2°52.493 -999 256 6.2 102130 53
2011-11-18 07:03:06 51°17.094 2°52.477 -999 283 6.2 102130 53
2011-11-18 07:03:10 51°17.106 2°52.467 -999 263 6.2 102130 54
2011-11-18 07:03:16 51°17.125 2°52.451 -999 306 6.2 102130 54
2011-11-18 07:03:20 51°17.138 2°52.441 -999 262 6.2 102130 53
2011-11-18 07:03:25 51°17.153 2°52.427 -999 306 6.2 102130 53
2011-11-18 07:03:30 51°17.169 2°52.414 -999 265 6.2 102130 53
2011-11-18 07:03:36 51°17.188 2°52.398 -999 306 6.2 102130 53
2011-11-18 07:03:40 51°17.2 2°52.387 -999 265 6.2 102130 54
2011-11-18 07:03:45 51°17.216 2°52.374 -999 306 6.2 102130 54
2011-11-18 07:03:51 51°17.234 2°52.358 -999 267 6.3 102130 54
2011-11-18 07:03:56 51°17.25 2°52.345 -999 58 6.3 102130 54
2011-11-18 07:04:00 51°17.262 2°52.335 -999 270 6.2 102130 54
2011-11-18 07:04:05 51°17.279 2°52.322 -999 282 6.2 102130 54
2011-11-18 07:04:10 51°17.295 2°52.309 -999 262 6.2 102130 54
2011-11-18 07:04:16 51°17.314 2°52.294 -999 306 6.2 102130 54
2011-11-18 07:04:20 51°17.326 2°52.284 -999 258 6.3 102130 53
2011-11-18 07:04:25 51°17.342 2°52.272 -999 306 6.3 102130 53
2011-11-18 07:04:30 51°17.358 2°52.26 0.1 262 6.3 102130 54
2011-11-18 07:04:35 51°17.374 2°52.248 0.1 306 6.3 102130 54
2011-11-18 07:04:40 51°17.391 2°52.236 -999 259 6.3 102130 54
2011-11-18 07:04:45 51°17.408 2°52.224 -999 306 6.3 102130 54
2011-11-18 07:04:50 51°17.424 2°52.212 -999 260 6.3 102130 54
2011-11-18 07:04:56 51°17.444 2°52.199 -999 306 6.3 102130 54
2011-11-18 07:05:00 51°17.457 2°52.189 -999 254 6.3 102130 54
2011-11-18 07:05:06 51°17.476 2°52.174 0.7 279 6.3 102130 54
2011-11-18 07:05:10 51°17.489 2°52.163 1.5 260 6.3 102120 54
2011-11-18 07:05:16 51°17.508 2°52.147 0.9 309 6.3 102120 54
2011-11-18 07:05:20 51°17.52 2°52.135 0.2 261 6.3 102130 54
2011-11-18 07:05:25 51°17.535 2°52.121 0.1 306 6.3 102130 54
2011-11-18 07:05:30 51°17.55 2°52.107 -999 262 6.3 102130 54
2011-11-18 07:05:35 51°17.565 2°52.092 -999 306 6.3 102130 54
2011-11-18 07:05:40 51°17.58 2°52.078 -999 254 6.3 102130 54
2011-11-18 07:05:46 51°17.599 2°52.062 -999 306 6.3 102130 54
2011-11-18 07:05:51 51°17.615 2°52.049 0.1 20 6.3 102130 54
2011-11-18 07:05:56 51°17.631 2°52.036 0.1 306 6.3 102130 54
2011-11-18 07:06:00 51°17.644 2°52.025 -999 261 6.3 102130 54
2011-11-18 07:06:05 51°17.66 2°52.012 -999 282 6.3 102130 54
2011-11-18 07:06:11 51°17.678 2°51.996 -999 259 6.3 102130 52
2011-11-18 07:06:16 51°17.694 2°51.982 -999 306 6.3 102130 52
2011-11-18 07:06:20 51°17.706 2°51.971 -999 262 6.4 102130 54
2011-11-18 07:06:25 51°17.722 2°51.957 -999 306 6.4 102130 54
2011-11-18 07:06:31 51°17.741 2°51.941 -999 263 6.4 102120 54
2011-11-18 07:06:36 51°17.756 2°51.927 -999 306 6.4 102120 54
2011-11-18 07:06:40 51°17.768 2°51.916 0.1 259 6.4 102120 54
2011-11-18 07:06:46 51°17.787 2°51.9 0.1 306 6.4 102120 54
2011-11-18 07:06:50 51°17.799 2°51.889 0.1 252 6.4 102130 54
2011-11-18 07:06:55 51°17.814 2°51.875 -999 306 6.4 102130 54
2011-11-18 07:07:00 51°17.83 2°51.861 -999 262 6.4 102120 54
2011-11-18 07:07:05 51°17.845 2°51.847 -999 306 6.4 102120 54
2011-11-18 07:07:10 51°17.86 2°51.833 -999 264 6.4 102130 54
2011-11-18 07:07:15 51°17.876 2°51.819 -999 306 6.4 102130 54
2011-11-18 07:07:20 51°17.892 2°51.806 -999 256 6.4 102130 55
2011-11-18 07:07:25 51°17.907 2°51.792 -999 306 6.4 102130 55
2011-11-18 07:07:31 51°17.926 2°51.777 -999 270 6.4 102120 54
2011-11-18 07:07:36 51°17.942 2°51.766 -999 306 6.4 102120 54
2011-11-18 07:07:40 51°17.955 2°51.756 0.1 270 6.4 102130 54
2011-11-18 07:07:46 51°17.975 2°51.743 0.1 308 6.4 102130 54
2011-11-18 07:07:51 51°17.991 2°51.732 0.1 25 6.4 102120 54
2011-11-18 07:07:56 51°18.008 2°51.721 -999 54 6.4 102120 54
2011-11-18 07:08:00 51°18.021 2°51.712 -999 23 6.4 102130 54
2011-11-18 07:08:05 51°18.038 2°51.701 0.8 78 6.4 102130 54
2011-11-18 07:08:11 51°18.058 2°51.687 0.2 22 6.4 102120 54
2011-11-18 07:08:16 51°18.074 2°51.676 0.1 54 6.4 102120 54
2011-11-18 07:08:20 51°18.087 2°51.667 0.1 23 6.4 102130 54
2011-11-18 07:08:25 51°18.103 2°51.656 -999 54 6.4 102130 54
2011-11-18 07:08:31 51°18.122 2°51.642 -999 23 6.4 102130 54
2011-11-18 07:08:36 51°18.138 2°51.63 -999 309 6.4 102130 54
2011-11-18 07:08:40 51°18.151 2°51.621 -999 267 6.4 102130 54
2011-11-18 07:08:46 51°18.17 2°51.607 -999 306 6.4 102130 54
2011-11-18 07:08:50 51°18.183 2°51.597 -999 266 6.4 102130 53
2011-11-18 07:08:56 51°18.203 2°51.583 -999 306 6.4 102130 53
2011-11-18 07:09:00 51°18.216 2°51.574 -999 264 6.4 102130 54
2011-11-18 07:09:05 51°18.232 2°51.562 -999 306 6.4 102130 54
2011-11-18 07:09:10 51°18.248 2°51.55 -999 256 6.4 102130 54
2011-11-18 07:09:15 51°18.264 2°51.538 -999 306 6.4 102130 54
2011-11-18 07:09:20 51°18.28 2°51.527 1.3 257 6.4 102130 54
2011-11-18 07:09:25 51°18.297 2°51.515 0.2 311 6.4 102130 54
2011-11-18 07:09:31 51°18.316 2°51.501 0.1 269 6.4 102130 54
2011-11-18 07:09:36 51°18.332 2°51.489 0.1 306 6.4 102130 54
2011-11-18 07:09:40 51°18.345 2°51.479 -999 265 6.4 102120 54
2011-11-18 07:09:46 51°18.365 2°51.465 -999 306 6.4 102120 54
2011-11-18 07:09:51 51°18.381 2°51.452 -999 254 6.4 102120 54
2011-11-18 07:09:56 51°18.397 2°51.439 0.1 306 6.4 102120 54
2011-11-18 07:10:00 51°18.41 2°51.43 0.1 259 6.4 102130 54
2011-11-18 07:10:06 51°18.429 2°51.414 0.3 282 6.4 102130 54
2011-11-18 07:10:10 51°18.441 2°51.404 0.1 262 6.4 102120 54
2011-11-18 07:10:15 51°18.458 2°51.392 0.1 306 6.4 102120 54
2011-11-18 07:10:20 51°18.473 2°51.378 0.1 250 6.5 102120 54
2011-11-18 07:10:25 51°18.489 2°51.366 1.8 303 6.5 102120 54
2011-11-18 07:10:31 51°18.508 2°51.35 0.9 261 6.5 102130 54
2011-11-18 07:10:36 51°18.524 2°51.336 0.1 306 6.5 102130 54
2011-11-18 07:10:40 51°18.537 2°51.326 0.1 255 6.5 102120 55
2011-11-18 07:10:45 51°18.552 2°51.312 -999 306 6.5 102120 55
2011-11-18 07:10:50 51°18.567 2°51.298 -999 258 6.5 102130 54
2011-11-18 07:10:56 51°18.586 2°51.281 -999 306 6.5 102130 54
2011-11-18 07:11:00 51°18.598 2°51.269 -999 262 6.5 102130 54
2011-11-18 07:11:05 51°18.614 2°51.255 -999 282 6.5 102130 54
2011-11-18 07:11:11 51°18.633 2°51.238 -999 261 6.5 102130 54
2011-11-18 07:11:16 51°18.647 2°51.224 -999 306 6.5 102130 54
2011-11-18 07:11:20 51°18.66 2°51.213 -999 262 6.5 102130 54
2011-11-18 07:11:26 51°18.678 2°51.197 -999 306 6.5 102130 54
2011-11-18 07:11:31 51°18.694 2°51.185 -999 265 6.5 102130 53
2011-11-18 07:11:35 51°18.707 2°51.174 -999 306 6.5 102130 53
2011-11-18 07:11:40 51°18.723 2°51.163 -999 266 6.5 102130 54
2011-11-18 07:11:46 51°18.743 2°51.149 -999 306 6.5 102130 54
2011-11-18 07:11:51 51°18.759 2°51.137 -999 263 6.5 102130 54
2011-11-18 07:11:56 51°18.777 2°51.126 -999 306 6.5 102130 54
2011-11-18 07:12:00 51°18.79 2°51.116 -999 261 6.5 102130 54
2011-11-18 07:12:06 51°18.81 2°51.102 -999 283 6.5 102130 54
2011-11-18 07:12:10 51°18.822 2°51.093 -999 262 6.5 102120 54
2011-11-18 07:12:15 51°18.839 2°51.081 -999 306 6.5 102120 54
2011-11-18 07:12:20 51°18.855 2°51.069 -999 265 6.5 102120 54
2011-11-18 07:12:25 51°18.871 2°51.056 -999 306 6.5 102120 54
2011-11-18 07:12:31 51°18.891 2°51.041 -999 256 6.5 102120 54
2011-11-18 07:12:36 51°18.907 2°51.028 -999 306 6.5 102120 54
2011-11-18 07:12:40 51°18.92 2°51.018 -999 261 6.5 102130 54
2011-11-18 07:12:45 51°18.936 2°51.004 -999 306 6.5 102130 54
2011-11-18 07:12:51 51°18.956 2°50.988 -999 256 6.5 102130 54
2011-11-18 07:12:56 51°18.971 2°50.974 -999 306 6.5 102130 54
2011-11-18 07:13:00 51°18.983 2°50.963 0.1 263 6.5 102120 54
2011-11-18 07:13:05 51°18.998 2°50.948 0.1 282 6.5 102120 54
2011-11-18 07:13:11 51°19.017 2°50.932 0.1 260 6.6 102120 54
2011-11-18 07:13:16 51°19.033 2°50.917 -999 306 6.6 102120 54
2011-11-18 07:13:20 51°19.046 2°50.906 -999 262 6.6 102130 54
2011-11-18 07:13:26 51°19.065 2°50.889 -999 306 6.6 102130 54
2011-11-18 07:13:30 51°19.077 2°50.879 -999 267 6.6 102130 54
2011-11-18 07:13:36 51°19.096 2°50.862 -999 306 6.6 102130 54
2011-11-18 07:13:40 51°19.108 2°50.851 -999 263 6.6 102120 54
2011-11-18 07:13:45 51°19.125 2°50.838 -999 306 6.6 102120 54
2011-11-18 07:13:50 51°19.141 2°50.825 -999 26 6.6 102130 54
2011-11-18 07:13:55 51°19.157 2°50.813 -999 59 6.6 102130 54
2011-11-18 07:14:00 51°19.172 2°50.8 -999 25 6.6 102120 54
2011-11-18 07:14:05 51°19.189 2°50.789 -999 78 6.6 102120 54
2011-11-18 07:14:11 51°19.209 2°50.775 -999 261 6.6 102120 52
2011-11-18 07:14:16 51°19.226 2°50.764 -999 306 6.6 102120 52
2011-11-18 07:14:20 51°19.239 2°50.754 -999 254 6.6 102130 55
2011-11-18 07:14:26 51°19.259 2°50.741 -999 306 6.6 102130 55
2011-11-18 07:14:31 51°19.276 2°50.73 -999 264 6.6 102130 54
2011-11-18 07:14:36 51°19.292 2°50.718 -999 306 6.6 102130 54
2011-11-18 07:14:40 51°19.305 2°50.709 -999 262 6.6 102130 54
2011-11-18 07:14:45 51°19.321 2°50.696 -999 306 6.6 102130 54
2011-11-18 07:14:51 51°19.341 2°50.682 -999 264 6.6 102130 54
2011-11-18 07:14:56 51°19.357 2°50.67 -999 306 6.6 102130 54
2011-11-18 07:15:00 51°19.371 2°50.66 -999 265 6.6 102120 54
2011-11-18 07:15:05 51°19.387 2°50.648 -999 308 6.6 102120 54
2011-11-18 07:15:10 51°19.404 2°50.636 -999 269 6.6 102130 54
2011-11-18 07:15:16 51°19.423 2°50.622 -999 306 6.6 102130 54
2011-11-18 07:15:20 51°19.436 2°50.612 -999 266 6.6 102130 54
2011-11-18 07:15:25 51°19.451 2°50.599 -999 306 6.6 102130 54
2011-11-18 07:15:31 51°19.471 2°50.585 -999 266 6.6 102130 54
2011-11-18 07:15:36 51°19.487 2°50.573 0.2 309 6.6 102130 54
2011-11-18 07:15:40 51°19.501 2°50.564 0.2 25 6.6 102130 54
2011-11-18 07:15:44 51°19.514 2°50.554 0.1 306 6.6 102130 54
2011-11-18 07:15:50 51°19.533 2°50.54 -999 266 6.6 102130 53
2011-11-18 07:15:56 51°19.553 2°50.525 0.5 306 6.6 102130 53
2011-11-18 07:16:00 51°19.564 2°50.515 0.1 265 6.6 102130 54
2011-11-18 07:16:05 51°19.58 2°50.502 0.1 282 6.6 102130 54
2011-11-18 07:16:11 51°19.6 2°50.487 -999 264 6.6 102130 54
2011-11-18 07:16:16 51°19.616 2°50.474 -999 306 6.6 102130 54
2011-11-18 07:16:20 51°19.628 2°50.463 -999 261 6.6 102120 54
2011-11-18 07:16:26 51°19.647 2°50.447 -999 306 6.6 102120 54
2011-11-18 07:16:31 51°19.663 2°50.434 -999 263 6.6 102120 54
2011-11-18 07:16:36 51°19.68 2°50.42 1.3 302 6.6 102120 54
2011-11-18 07:16:40 51°19.693 2°50.409 0.7 265 6.6 102120 54
2011-11-18 07:16:46 51°19.711 2°50.392 1.3 303 6.6 102120 54
2011-11-18 07:16:51 51°19.727 2°50.377 1.9 260 6.6 102120 53
2011-11-18 07:16:56 51°19.741 2°50.363 0.2 307 6.6 102120 53
2011-11-18 07:17:00 51°19.754 2°50.351 0.1 257 6.6 102130 54
2011-11-18 07:17:05 51°19.769 2°50.337 -999 282 6.6 102130 54
2011-11-18 07:17:11 51°19.788 2°50.321 -999 261 6.7 102130 52
2011-11-18 07:17:16 51°19.803 2°50.307 -999 306 6.7 102130 52
2011-11-18 07:17:20 51°19.816 2°50.297 -999 267 6.7 102130 54
2011-11-18 07:17:26 51°19.835 2°50.281 -999 298 6.7 102130 54
2011-11-18 07:17:30 51°19.849 2°50.271 0.5 20 6.7 102130 54
2011-11-18 07:17:36 51°19.868 2°50.257 0.2 309 6.7 102130 54
2011-11-18 07:17:40 51°19.88 2°50.247 0.1 270 6.7 102130 54
2011-11-18 07:17:46 51°19.898 2°50.232 -999 310 6.7 102130 54
2011-11-18 07:17:50 51°19.911 2°50.223 -999 20 6.7 102120 52
2011-11-18 07:17:56 51°19.931 2°50.209 0.3 305 6.7 102120 52
2011-11-18 07:18:00 51°19.944 2°50.2 0.1 264 6.7 102130 54
2011-11-18 07:18:05 51°19.96 2°50.189 0.4 86 6.7 102130 54
2011-11-18 07:18:10 51°19.977 2°50.177 1.5 27 6.7 102130 53
2011-11-18 07:18:15 51°19.993 2°50.165 1.5 55 6.7 102130 53
2011-11-18 07:18:20 51°20.01 2°50.153 1 20 6.7 102130 54
2011-11-18 07:18:25 51°20.027 2°50.142 0.1 307 6.7 102130 54
2011-11-18 07:18:31 51°20.046 2°50.128 0.1 266 6.7 102120 56
2011-11-18 07:18:36 51°20.062 2°50.115 -999 306 6.7 102120 56
2011-11-18 07:18:40 51°20.075 2°50.106 1.9 259 6.7 102120 54
2011-11-18 07:18:46 51°20.094 2°50.09 0.1 306 6.7 102120 54
2011-11-18 07:18:50 51°20.107 2°50.08 0.1 259 6.6 102120 54
2011-11-18 07:18:55 51°20.123 2°50.066 0.1 310 6.6 102120 54
2011-11-18 07:19:00 51°20.137 2°50.052 0.1 258 6.6 102120 54
2011-11-18 07:19:05 51°20.154 2°50.039 2.2 308 6.6 102120 54
2011-11-18 07:19:11 51°20.173 2°50.023 0.2 268 6.7 102130 54
2011-11-18 07:19:16 51°20.189 2°50.011 0.1 306 6.7 102130 54
2011-11-18 07:19:20 51°20.202 2°50.002 -999 266 6.7 102130 54
2011-11-18 07:19:25 51°20.217 2°49.99 -999 59 6.7 102130 54
2011-11-18 07:19:31 51°20.236 2°49.977 -999 27 6.7 102120 53
2011-11-18 07:19:36 51°20.253 2°49.967 -999 54 6.7 102120 53
2011-11-18 07:19:40 51°20.266 2°49.958 -999 23 6.7 102130 54
2011-11-18 07:19:45 51°20.283 2°49.948 -999 58 6.7 102130 54
2011-11-18 07:19:50 51°20.3 2°49.939 -999 25 6.7 102130 54
2011-11-18 07:19:56 51°20.321 2°49.928 -999 54 6.7 102130 54
2011-11-18 07:20:00 51°20.335 2°49.921 -999 23 6.7 102130 54
2011-11-18 07:20:05 51°20.353 2°49.913 -999 78 6.7 102130 54
2011-11-18 07:20:11 51°20.372 2°49.903 -999 23 6.7 102120 54
2011-11-18 07:20:16 51°20.39 2°49.895 -999 54 6.7 102120 54
2011-11-18 07:20:20 51°20.404 2°49.889 -999 23 6.7 102130 54
2011-11-18 07:20:26 51°20.425 2°49.88 -999 54 6.7 102130 54
2011-11-18 07:20:30 51°20.44 2°49.875 -999 23 6.7 102130 54
2011-11-18 07:20:35 51°20.457 2°49.868 -999 54 6.7 102130 54
2011-11-18 07:20:40 51°20.475 2°49.86 -999 23 6.7 102130 54
2011-11-18 07:20:46 51°20.496 2°49.85 -999 54 6.7 102130 54
2011-11-18 07:20:50 51°20.51 2°49.844 -999 23 6.7 102130 54
2011-11-18 07:20:55 51°20.527 2°49.836 -999 54 6.7 102130 54
2011-11-18 07:21:00 51°20.543 2°49.827 -999 23 6.7 102130 54
2011-11-18 07:21:05 51°20.56 2°49.82 -999 54 6.7 102130 54
2011-11-18 07:21:11 51°20.581 2°49.809 -999 23 6.6 102130 54
2011-11-18 07:21:16 51°20.599 2°49.801 -999 54 6.6 102130 54
2011-11-18 07:21:20 51°20.612 2°49.794 -999 23 6.6 102130 54
2011-11-18 07:21:26 51°20.633 2°49.783 -999 54 6.6 102130 54
2011-11-18 07:21:31 51°20.65 2°49.775 -999 23 6.6 102130 54
2011-11-18 07:21:36 51°20.667 2°49.766 -999 54 6.6 102130 54
2011-11-18 07:21:40 51°20.681 2°49.758 -999 23 6.6 102130 54
2011-11-18 07:21:44 51°20.694 2°49.75 -999 54 6.6 102130 54
2011-11-18 07:21:51 51°20.716 2°49.736 -999 23 6.6 102130 54
2011-11-18 07:21:56 51°20.733 2°49.725 -999 306 6.6 102130 54
2011-11-18 07:22:00 51°20.746 2°49.717 -999 263 6.6 102130 54
2011-11-18 07:22:05 51°20.763 2°49.707 -999 282 6.6 102130 54
2011-11-18 07:22:10 51°20.78 2°49.697 -999 257 6.6 102130 53
2011-11-18 07:22:16 51°20.8 2°49.685 -999 306 6.6 102130 53
2011-11-18 07:22:20 51°20.814 2°49.678 -999 269 6.6 102130 54
2011-11-18 07:22:25 51°20.831 2°49.669 -999 306 6.6 102130 54
2011-11-18 07:22:31 51°20.853 2°49.66 -999 264 6.7 102130 54
2011-11-18 07:22:36 51°20.87 2°49.651 -999 54 6.7 102130 54
2011-11-18 07:22:40 51°20.883 2°49.645 -999 25 6.7 102130 54
2011-11-18 07:22:46 51°20.904 2°49.635 -999 58 6.7 102130 54
2011-11-18 07:22:51 51°20.921 2°49.628 -999 27 6.7 102130 54
2011-11-18 07:22:56 51°20.939 2°49.62 -999 306 6.7 102130 54
2011-11-18 07:23:00 51°20.953 2°49.614 -999 270 6.7 102130 54
2011-11-18 07:23:06 51°20.973 2°49.604 -999 306 6.7 102130 54
2011-11-18 07:23:11 51°20.99 2°49.595 -999 267 6.7 102130 54
2011-11-18 07:23:16 51°21.006 2°49.586 -999 306 6.7 102130 54
2011-11-18 07:23:20 51°21.02 2°49.58 -999 267 6.7 102130 54
2011-11-18 07:23:26 51°21.041 2°49.569 -999 306 6.7 102130 54
2011-11-18 07:23:30 51°21.054 2°49.563 -999 264 6.7 102130 54
2011-11-18 07:23:35 51°21.071 2°49.554 -999 308 6.7 102130 54
2011-11-18 07:23:40 51°21.088 2°49.545 -999 270 6.7 102130 54
2011-11-18 07:23:45 51°21.105 2°49.536 -999 306 6.7 102130 54
2011-11-18 07:23:51 51°21.126 2°49.525 -999 264 6.7 102120 52
2011-11-18 07:23:56 51°21.142 2°49.515 -999 307 6.7 102120 52
2011-11-18 07:24:00 51°21.156 2°49.509 -999 262 6.7 102130 54
2011-11-18 07:24:05 51°21.173 2°49.499 -999 283 6.7 102130 54
2011-11-18 07:24:11 51°21.193 2°49.489 -999 270 6.7 102130 54
2011-11-18 07:24:16 51°21.21 2°49.481 -999 54 6.7 102130 54
2011-11-18 07:24:20 51°21.224 2°49.474 -999 23 6.7 102120 54
2011-11-18 07:24:24 51°21.238 2°49.467 -999 54 6.7 102120 54
2011-11-18 07:24:30 51°21.258 2°49.457 -999 23 6.7 102120 54
2011-11-18 07:24:36 51°21.278 2°49.446 -999 54 6.7 102120 54
2011-11-18 07:24:40 51°21.292 2°49.439 -999 23 6.7 102130 54
2011-11-18 07:24:45 51°21.309 2°49.43 -999 54 6.7 102130 54
2011-11-18 07:24:50 51°21.326 2°49.421 -999 23 6.7 102130 53
2011-11-18 07:24:56 51°21.347 2°49.411 -999 54 6.7 102130 53
2011-11-18 07:25:00 51°21.36 2°49.404 -999 269 6.7 102120 54
2011-11-18 07:25:05 51°21.377 2°49.396 -999 283 6.7 102120 54
2011-11-18 07:25:11 51°21.397 2°49.386 -999 269 6.7 102130 54
2011-11-18 07:25:16 51°21.413 2°49.377 -999 58 6.7 102130 54
2011-11-18 07:25:20 51°21.426 2°49.369 -999 22 6.7 102130 54
2011-11-18 07:25:26 51°21.446 2°49.357 -999 54 6.7 102130 54
2011-11-18 07:25:31 51°21.462 2°49.347 -999 269 6.7 102120 54
2011-11-18 07:25:36 51°21.479 2°49.337 -999 309 6.7 102120 54
2011-11-18 07:25:40 51°21.492 2°49.329 -999 25 6.7 102120 54
2011-11-18 07:25:46 51°21.512 2°49.317 -999 54 6.7 102120 54
2011-11-18 07:25:51 51°21.529 2°49.307 -999 25 6.7 102130 54
2011-11-18 07:25:56 51°21.546 2°49.296 -999 309 6.7 102130 54
2011-11-18 07:26:00 51°21.559 2°49.288 -999 264 6.8 102120 54
2011-11-18 07:26:04 51°21.572 2°49.279 -999 282 6.8 102120 54
2011-11-18 07:26:11 51°21.594 2°49.263 -999 263 6.8 102130 54
2011-11-18 07:26:16 51°21.609 2°49.251 -999 306 6.8 102130 54
2011-11-18 07:26:20 51°21.622 2°49.241 -999 263 6.8 102120 54
2011-11-18 07:26:25 51°21.637 2°49.227 3.4 309 6.8 102120 54
2011-11-18 07:26:30 51°21.652 2°49.212 2.9 260 6.8 102120 54
2011-11-18 07:26:36 51°21.669 2°49.193 3.9 304 6.8 102120 54
2011-11-18 07:26:40 51°21.679 2°49.178 3.3 259 6.8 102120 55
2011-11-18 07:26:45 51°21.692 2°49.161 3.7 308 6.8 102120 55
2011-11-18 07:26:50 51°21.705 2°49.143 3.7 259 6.8 102120 53
2011-11-18 07:26:55 51°21.718 2°49.125 1.8 305 6.8 102120 53
2011-11-18 07:27:00 51°21.731 2°49.106 2.4 251 6.8 102120 55
2011-11-18 07:27:05 51°21.744 2°49.088 4.6 301 6.8 102120 55
2011-11-18 07:27:11 51°21.759 2°49.065 3.5 258 6.8 102120 53
2011-11-18 07:27:16 51°21.772 2°49.048 4.1 303 6.8 102120 53
2011-11-18 07:27:20 51°21.783 2°49.033 4.9 257 6.8 102120 53
2011-11-18 07:27:26 51°21.798 2°49.01 3.2 307 6.8 102120 53
2011-11-18 07:27:31 51°21.811 2°48.992 2.9 259 6.9 102120 54
2011-11-18 07:27:36 51°21.824 2°48.973 3.6 307 6.9 102120 54
2011-11-18 07:27:40 51°21.834 2°48.959 2.9 262 6.9 102120 53
2011-11-18 07:27:46 51°21.851 2°48.937 3.6 303 6.9 102120 53
2011-11-18 07:27:50 51°21.861 2°48.922 4 260 6.9 102120 53
2011-11-18 07:27:55 51°21.874 2°48.904 2.5 305 6.9 102120 53
2011-11-18 07:28:00 51°21.887 2°48.885 2.2 255 6.9 102120 53
2011-11-18 07:28:05 51°21.9 2°48.867 0.8 282 6.9 102120 53
2011-11-18 07:28:11 51°21.917 2°48.846 3.1 257 6.9 102130 53
2011-11-18 07:28:16 51°21.93 2°48.828 2.7 308 6.9 102130 53
2011-11-18 07:28:20 51°21.942 2°48.814 0.8 255 6.9 102120 52
2011-11-18 07:28:25 51°21.955 2°48.797 3.8 303 6.9 102120 52
2011-11-18 07:28:31 51°21.972 2°48.776 5 256 7 102130 55
2011-11-18 07:28:36 51°21.985 2°48.758 3.2 306 7 102130 55
2011-11-18 07:28:40 51°21.996 2°48.744 2 252 6.9 102130 54
2011-11-18 07:28:44 51°22.007 2°48.729 0.4 309 6.9 102130 54
2011-11-18 07:28:50 51°22.023 2°48.708 4.6 257 7 102120 53
2011-11-18 07:28:56 51°22.038 2°48.686 2.8 309 7 102120 53
2011-11-18 07:29:00 51°22.049 2°48.672 0.4 257 6.9 102120 55
2011-11-18 07:29:05 51°22.062 2°48.653 3.7 280 6.9 102120 55
2011-11-18 07:29:10 51°22.075 2°48.635 4.8 258 7 102120 54
2011-11-18 07:29:16 51°22.091 2°48.613 3.9 307 7 102120 54
2011-11-18 07:29:20 51°22.101 2°48.598 3 262 6.9 102120 54
2011-11-18 07:29:25 51°22.115 2°48.58 3.5 302 6.9 102120 54
2011-11-18 07:29:31 51°22.131 2°48.559 3.2 259 6.9 102120 54
2011-11-18 07:29:36 51°22.145 2°48.542 3.3 303 6.9 102120 54
2011-11-18 07:29:40 51°22.156 2°48.528 3.5 256 6.9 102120 53
2011-11-18 07:29:46 51°22.173 2°48.507 3.9 307 6.9 102120 53
2011-11-18 07:29:51 51°22.187 2°48.491 4.1 261 6.9 102130 53
2011-11-18 07:29:56 51°22.201 2°48.474 4.2 310 6.9 102130 53
2011-11-18 07:30:00 51°22.213 2°48.461 3.8 263 7 102130 53
2011-11-18 07:30:06 51°22.229 2°48.44 1.7 283 7 102130 53
2011-11-18 07:30:11 51°22.243 2°48.423 2.8 253 7 102130 54
2011-11-18 07:30:16 51°22.256 2°48.406 3.5 308 7 102130 54
2011-11-18 07:30:20 51°22.267 2°48.392 4.5 256 7 102130 53
2011-11-18 07:30:24 51°22.278 2°48.377 2.6 308 7 102130 53
2011-11-18 07:30:31 51°22.297 2°48.352 5.2 254 7 102120 55
2011-11-18 07:30:35 51°22.308 2°48.337 4.7 305 7 102120 55
2011-11-18 07:30:40 51°22.321 2°48.319 6 260 7 102120 53
2011-11-18 07:30:45 51°22.334 2°48.301 5.8 306 7 102120 53
2011-11-18 07:30:50 51°22.347 2°48.283 5.4 256 7 102120 53
2011-11-18 07:30:56 51°22.363 2°48.261 5.4 309 7 102120 53
2011-11-18 07:31:00 51°22.373 2°48.246 5.5 255 7.1 102130 54
2011-11-18 07:31:05 51°22.386 2°48.226 4.9 280 7.1 102130 54
2011-11-18 07:31:11 51°22.401 2°48.203 5.4 251 7.1 102120 55
2011-11-18 07:31:16 51°22.413 2°48.182 4.9 306 7.1 102120 55
2011-11-18 07:31:20 51°22.422 2°48.166 4.7 250 7 102120 53
2011-11-18 07:31:26 51°22.434 2°48.14 5.7 308 7 102120 53
2011-11-18 07:31:31 51°22.444 2°48.117 6.3 252 7 102120 54
2011-11-18 07:31:35 51°22.452 2°48.1 5.6 309 7 102120 54
2011-11-18 07:31:40 51°22.462 2°48.077 6.6 254 7 102120 53
2011-11-18 07:31:46 51°22.473 2°48.05 5.7 304 7 102120 53
2011-11-18 07:31:50 51°22.481 2°48.032 5.2 253 7.1 102120 53
2011-11-18 07:31:55 51°22.49 2°48.009 4.8 304 7.1 102120 53
2011-11-18 07:32:00 51°22.499 2°47.986 5.2 19 7 102120 54
2011-11-18 07:32:06 51°22.511 2°47.959 5.4 302 7 102120 54
2011-11-18 07:32:11 51°22.521 2°47.936 4.5 21 7.1 102120 55
2011-11-18 07:32:16 51°22.53 2°47.913 6.4 305 7.1 102120 55
2011-11-18 07:32:20 51°22.538 2°47.896 5.1 255 7 102120 55
2011-11-18 07:32:26 51°22.551 2°47.868 5.9 310 7 102120 55
2011-11-18 07:32:31 51°22.56 2°47.846 5.4 256 7 102120 53
2011-11-18 07:32:36 51°22.57 2°47.823 5.9 304 7 102120 53
2011-11-18 07:32:40 51°22.578 2°47.804 5.1 247 7 102110 53
2011-11-18 07:32:45 51°22.587 2°47.781 5.4 311 7 102110 53
2011-11-18 07:32:51 51°22.598 2°47.753 5.5 254 7.1 102120 54
2011-11-18 07:32:55 51°22.606 2°47.735 6.4 304 7.1 102120 54
2011-11-18 07:33:00 51°22.616 2°47.712 7.2 259 7.1 102120 53
2011-11-18 07:33:05 51°22.626 2°47.689 4.8 285 7.1 102120 53
2011-11-18 07:33:10 51°22.636 2°47.666 6.6 251 7.1 102120 55
2011-11-18 07:33:16 51°22.647 2°47.639 6.7 309 7.1 102120 55
2011-11-18 07:33:20 51°22.655 2°47.62 5.8 253 7.1 102120 55
2011-11-18 07:33:25 51°22.665 2°47.598 4.9 310 7.1 102120 55
2011-11-18 07:33:31 51°22.678 2°47.571 6 256 7.1 102120 55
2011-11-18 07:33:36 51°22.689 2°47.549 5.1 307 7.1 102120 55
2011-11-18 07:33:40 51°22.697 2°47.532 5.1 255 7.2 102120 55
2011-11-18 07:33:46 51°22.71 2°47.506 5.7 304 7.2 102120 55
2011-11-18 07:33:51 51°22.721 2°47.484 6.1 258 7.2 102120 53
2011-11-18 07:33:55 51°22.729 2°47.466 5.1 303 7.2 102120 53
2011-11-18 07:34:00 51°22.739 2°47.444 5.5 252 7.2 102120 53
2011-11-18 07:34:06 51°22.751 2°47.416 3.8 281 7.2 102120 53
2011-11-18 07:34:10 51°22.758 2°47.398 5.5 252 7.2 102120 55
2011-11-18 07:34:15 51°22.769 2°47.375 6.5 310 7.2 102120 55
2011-11-18 07:34:20 51°22.779 2°47.352 6 253 7.1 102120 53
2011-11-18 07:34:26 51°22.791 2°47.325 5.7 309 7.1 102120 53
2011-11-18 07:34:31 51°22.801 2°47.303 6.1 249 7.1 102120 53
2011-11-18 07:34:36 51°22.811 2°47.28 6.4 308 7.1 102120 53
2011-11-18 07:34:40 51°22.82 2°47.262 6.2 255 7.2 102110 55
2011-11-18 07:34:45 51°22.831 2°47.241 6.6 304 7.2 102110 55
2011-11-18 07:34:51 51°22.844 2°47.214 6.7 254 7.2 102110 55
2011-11-18 07:34:56 51°22.855 2°47.193 6.5 306 7.2 102110 55
2011-11-18 07:35:00 51°22.863 2°47.175 6.7 251 7.2 102110 54
2011-11-18 07:35:05 51°22.874 2°47.153 5.1 280 7.2 102110 54
2011-11-18 07:35:11 51°22.887 2°47.126 6.5 256 7.2 102120 55
2011-11-18 07:35:15 51°22.896 2°47.109 5.6 303 7.2 102120 55
2011-11-18 07:35:20 51°22.905 2°47.086 4 248 7.2 102120 53
2011-11-18 07:35:25 51°22.915 2°47.063 4.9 307 7.2 102120 53
2011-11-18 07:35:30 51°22.925 2°47.041 4.2 254 7.2 102120 52
2011-11-18 07:35:36 51°22.937 2°47.013 3.8 304 7.2 102120 52
2011-11-18 07:35:40 51°22.944 2°46.995 6 249 7.2 102120 53
2011-11-18 07:35:45 51°22.954 2°46.971 6 309 7.2 102120 53
2011-11-18 07:35:51 51°22.965 2°46.943 5.8 22 7.2 102110 53
2011-11-18 07:35:56 51°22.975 2°46.92 6.4 304 7.2 102110 53
2011-11-18 07:36:00 51°22.983 2°46.902 6.2 252 7.2 102120 55
2011-11-18 07:36:06 51°22.995 2°46.874 5.2 279 7.2 102120 55
2011-11-18 07:36:11 51°23.005 2°46.851 6.4 253 7.2 102120 55
2011-11-18 07:36:15 51°23.013 2°46.834 7 304 7.2 102120 55
2011-11-18 07:36:20 51°23.024 2°46.812 6.9 255 7.2 102120 55
2011-11-18 07:36:26 51°23.038 2°46.786 6.6 305 7.2 102120 55
2011-11-18 07:36:31 51°23.049 2°46.764 5.4 256 7.2 102120 55
2011-11-18 07:36:36 51°23.06 2°46.743 5.6 303 7.2 102120 55
2011-11-18 07:36:40 51°23.069 2°46.725 6.2 256 7.2 102120 54
2011-11-18 07:36:46 51°23.081 2°46.699 5.6 310 7.2 102120 54
2011-11-18 07:36:50 51°23.09 2°46.681 5.4 252 7.2 102120 55
2011-11-18 07:36:55 51°23.1 2°46.659 4.9 304 7.2 102120 55
2011-11-18 07:37:00 51°23.111 2°46.637 6.3 254 7.2 102120 55
2011-11-18 07:37:05 51°23.121 2°46.614 5.9 304 7.2 102120 55
2011-11-18 07:37:11 51°23.134 2°46.588 6.6 254 7.2 102120 55
2011-11-18 07:37:16 51°23.144 2°46.565 6.5 304 7.2 102120 55
2011-11-18 07:37:20 51°23.153 2°46.548 6.7 254 7.2 102120 55
2011-11-18 07:37:25 51°23.164 2°46.526 7.3 306 7.2 102120 55
2011-11-18 07:37:31 51°23.177 2°46.5 5.1 255 7.2 102120 53
2011-11-18 07:37:36 51°23.188 2°46.478 5.4 303 7.2 102120 53
2011-11-18 07:37:40 51°23.196 2°46.46 7.3 256 7.3 102120 53
2011-11-18 07:37:46 51°23.209 2°46.433 6.3 310 7.3 102120 53
2011-11-18 07:37:50 51°23.218 2°46.416 7.2 255 7.2 102120 54
2011-11-18 07:37:56 51°23.231 2°46.389 7.8 310 7.2 102120 54
2011-11-18 07:38:00 51°23.239 2°46.371 6.4 252 7.2 102110 54
2011-11-18 07:38:05 51°23.249 2°46.348 6.3 284 7.2 102110 54
2011-11-18 07:38:10 51°23.258 2°46.324 6.6 252 7.2 102110 52
2011-11-18 07:38:16 51°23.27 2°46.297 6.1 302 7.2 102110 52
2011-11-18 07:38:20 51°23.278 2°46.279 7.2 254 7.3 102110 55
2011-11-18 07:38:26 51°23.289 2°46.251 5.9 305 7.3 102110 55
2011-11-18 07:38:31 51°23.298 2°46.227 5.6 252 7.2 102110 53
2011-11-18 07:38:36 51°23.308 2°46.204 6.7 308 7.2 102110 53
2011-11-18 07:38:40 51°23.316 2°46.186 6.4 249 7.2 102120 55
2011-11-18 07:38:46 51°23.327 2°46.158 6.4 308 7.2 102120 55
2011-11-18 07:38:51 51°23.337 2°46.135 6.4 252 7.2 102120 54
2011-11-18 07:38:55 51°23.345 2°46.116 7.1 302 7.2 102120 54
2011-11-18 07:39:00 51°23.355 2°46.094 6.3 252 7.2 102120 54
2011-11-18 07:39:06 51°23.366 2°46.066 6.1 309 7.2 102120 54
2011-11-18 07:39:10 51°23.374 2°46.048 6.1 252 7.3 102110 53
2011-11-18 07:39:15 51°23.384 2°46.025 5.7 304 7.3 102110 53
2011-11-18 07:39:20 51°23.394 2°46.002 5.6 251 7.3 102110 55
2011-11-18 07:39:25 51°23.403 2°45.979 6.4 307 7.3 102110 55
2011-11-18 07:39:31 51°23.415 2°45.951 6.3 247 7.3 102110 55
2011-11-18 07:39:36 51°23.424 2°45.928 7.5 305 7.3 102110 55
2011-11-18 07:39:40 51°23.432 2°45.91 7.3 256 7.3 102120 55
2011-11-18 07:39:45 51°23.442 2°45.887 5.6 304 7.3 102120 55
2011-11-18 07:39:51 51°23.455 2°45.86 5.8 249 7.3 102120 54
2011-11-18 07:39:56 51°23.465 2°45.838 5.9 309 7.3 102120 54
2011-11-18 07:40:00 51°23.474 2°45.82 5.8 255 7.3 102100 54
2011-11-18 07:40:06 51°23.487 2°45.793 6.9 284 7.3 102100 54
2011-11-18 07:40:10 51°23.495 2°45.775 7.4 255 7.3 102110 53
2011-11-18 07:40:15 51°23.505 2°45.752 5.9 306 7.3 102110 53
2011-11-18 07:40:20 51°23.516 2°45.729 7.5 257 7.4 102110 55
2011-11-18 07:40:25 51°23.526 2°45.707 4.8 302 7.4 102110 55
2011-11-18 07:40:30 51°23.537 2°45.685 6.5 253 7.4 102110 55
2011-11-18 07:40:35 51°23.547 2°45.662 7.2 302 7.4 102110 55
2011-11-18 07:40:40 51°23.558 2°45.64 5.7 19 7.3 102110 55
2011-11-18 07:40:46 51°23.571 2°45.613 5.5 307 7.3 102110 55
2011-11-18 07:40:51 51°23.581 2°45.591 6.7 254 7.3 102110 54
2011-11-18 07:40:56 51°23.591 2°45.568 6.4 302 7.3 102110 54
2011-11-18 07:41:00 51°23.6 2°45.551 5.7 254 7.3 102120 55
2011-11-18 07:41:06 51°23.613 2°45.524 5 306 7.3 102120 55
2011-11-18 07:41:11 51°23.623 2°45.502 7 255 7.4 102110 54
2011-11-18 07:41:15 51°23.632 2°45.484 5.8 309 7.4 102110 54
2011-11-18 07:41:20 51°23.643 2°45.462 6.1 254 7.4 102110 53
2011-11-18 07:41:26 51°23.656 2°45.435 6.3 306 7.4 102110 53
2011-11-18 07:41:30 51°23.664 2°45.418 5.9 251 7.4 102110 53
2011-11-18 07:41:35 51°23.675 2°45.396 5 304 7.4 102110 53
2011-11-18 07:41:40 51°23.686 2°45.374 6.2 250 7.4 102120 54
2011-11-18 07:41:45 51°23.697 2°45.352 5 304 7.4 102120 54
2011-11-18 07:41:51 51°23.71 2°45.326 5.4 249 7.4 102110 54
2011-11-18 07:41:56 51°23.72 2°45.304 6.2 309 7.4 102110 54
2011-11-18 07:42:00 51°23.729 2°45.286 6.3 24 7.4 102110 55
2011-11-18 07:42:05 51°23.739 2°45.264 6.3 284 7.4 102110 55
2011-11-18 07:42:11 51°23.751 2°45.236 7 255 7.4 102110 55
2011-11-18 07:42:16 51°23.76 2°45.213 7.7 302 7.4 102110 55
2011-11-18 07:42:20 51°23.768 2°45.195 6.4 251 7.4 102120 55
2011-11-18 07:42:26 51°23.78 2°45.168 6.8 302 7.4 102120 55
2011-11-18 07:42:30 51°23.787 2°45.149 7.3 253 7.4 102110 55
2011-11-18 07:42:36 51°23.799 2°45.122 4.4 305 7.4 102110 55
2011-11-18 07:42:40 51°23.807 2°45.103 7.5 252 7.4 102110 54
2011-11-18 07:42:45 51°23.816 2°45.08 6.1 306 7.4 102110 54
2011-11-18 07:42:51 51°23.829 2°45.053 6.5 255 7.5 102110 55
2011-11-18 07:42:56 51°23.839 2°45.031 7.2 310 7.5 102110 55
2011-11-18 07:43:00 51°23.847 2°45.013 6.5 250 7.5 102120 55
2011-11-18 07:43:04 51°23.855 2°44.995 6 304 7.5 102120 55
2011-11-18 07:43:10 51°23.867 2°44.967 5 249 7.5 102120 53
2011-11-18 07:43:15 51°23.876 2°44.945 4.5 306 7.5 102120 53
2011-11-18 07:43:20 51°23.886 2°44.922 6.1 251 7.5 102120 53
2011-11-18 07:43:25 51°23.895 2°44.898 6.8 306 7.5 102120 53
2011-11-18 07:43:31 51°23.907 2°44.871 7.8 252 7.5 102110 54
2011-11-18 07:43:36 51°23.916 2°44.847 6.9 309 7.5 102110 54
2011-11-18 07:43:40 51°23.924 2°44.829 7.7 253 7.5 102120 53
2011-11-18 07:43:45 51°23.934 2°44.806 6.2 307 7.5 102120 53
2011-11-18 07:43:51 51°23.945 2°44.778 6.8 252 7.5 102120 55
2011-11-18 07:43:56 51°23.954 2°44.755 7 310 7.5 102120 55
2011-11-18 07:44:00 51°23.962 2°44.737 7.3 253 7.5 102110 55
2011-11-18 07:44:05 51°23.971 2°44.714 7.3 285 7.5 102110 55
2011-11-18 07:44:11 51°23.983 2°44.686 6.2 254 7.5 102110 53
2011-11-18 07:44:16 51°23.993 2°44.664 5.5 304 7.5 102110 53
2011-11-18 07:44:20 51°24.001 2°44.646 5.5 250 7.5 102120 53
2011-11-18 07:44:25 51°24.011 2°44.623 6.2 303 7.5 102120 53
2011-11-18 07:44:31 51°24.023 2°44.596 5.7 253 7.5 102120 54
2011-11-18 07:44:36 51°24.033 2°44.573 6.7 310 7.5 102120 54
2011-11-18 07:44:40 51°24.041 2°44.555 6.7 253 7.5 102120 55
2011-11-18 07:44:44 51°24.048 2°44.537 5.4 303 7.5 102120 55
2011-11-18 07:44:50 51°24.06 2°44.51 6.1 253 7.5 102120 53
2011-11-18 07:44:56 51°24.072 2°44.483 7.4 306 7.5 102120 53
2011-11-18 07:45:00 51°24.08 2°44.465 6.7 249 7.5 102120 54
2011-11-18 07:45:05 51°24.091 2°44.443 5.7 303 7.5 102120 54
2011-11-18 07:45:10 51°24.101 2°44.421 6 252 7.5 102110 55
2011-11-18 07:45:16 51°24.114 2°44.394 6 305 7.5 102110 55
2011-11-18 07:45:20 51°24.123 2°44.378 5.6 251 7.5 102110 55
2011-11-18 07:45:26 51°24.136 2°44.351 5.8 308 7.5 102110 55
2011-11-18 07:45:31 51°24.147 2°44.33 5.1 251 7.5 102120 53
2011-11-18 07:45:36 51°24.158 2°44.308 6.4 303 7.5 102120 53
2011-11-18 07:45:40 51°24.167 2°44.291 7 253 7.5 102120 55
2011-11-18 07:45:46 51°24.18 2°44.264 7 304 7.5 102120 55
2011-11-18 07:45:51 51°24.19 2°44.242 6.5 253 7.5 102120 54
2011-11-18 07:45:56 51°24.201 2°44.22 5.9 310 7.5 102120 54
2011-11-18 07:46:00 51°24.209 2°44.203 6.9 252 7.5 102120 55
2011-11-18 07:46:05 51°24.22 2°44.181 6.1 280 7.5 102120 55
2011-11-18 07:46:11 51°24.233 2°44.154 6.3 24 7.5 102120 52
2011-11-18 07:46:16 51°24.244 2°44.133 6.4 304 7.5 102120 52
2011-11-18 07:46:20 51°24.252 2°44.115 7.9 248 7.5 102120 55
2011-11-18 07:46:26 51°24.264 2°44.088 6.1 307 7.5 102120 55
2011-11-18 07:46:30 51°24.273 2°44.071 6.5 249 7.5 102120 55
2011-11-18 07:46:36 51°24.285 2°44.044 6.5 303 7.5 102120 55
2011-11-18 07:46:40 51°24.293 2°44.026 6.1 248 7.6 102120 55
2011-11-18 07:46:46 51°24.305 2°43.999 6.4 282 7.6 102120 55
2011-11-18 07:46:50 51°24.313 2°43.981 7.7 250 7.6 102110 54
2011-11-18 07:46:56 51°24.325 2°43.954 7.6 304 7.6 102110 54
2011-11-18 07:47:00 51°24.332 2°43.936 7.3 19 7.6 102110 55
2011-11-18 07:47:05 51°24.342 2°43.913 7.1 303 7.6 102110 55
2011-11-18 07:47:10 51°24.351 2°43.891 8 253 7.6 102120 55
2011-11-18 07:47:16 51°24.362 2°43.864 7.1 302 7.6 102120 55
2011-11-18 07:47:20 51°24.37 2°43.847 6.3 255 7.6 102110 54
2011-11-18 07:47:25 51°24.379 2°43.827 6.6 305 7.6 102110 54
2011-11-18 07:47:31 51°24.389 2°43.804 7.6 258 7.6 102120 55
2011-11-18 07:47:36 51°24.398 2°43.786 7.4 283 7.6 102120 55
2011-11-18 07:47:40 51°24.405 2°43.773 6.6 258 7.6 102120 55
2011-11-18 07:47:46 51°24.414 2°43.754 4.5 303 7.6 102120 55
2011-11-18 07:47:50 51°24.42 2°43.742 4.8 262 7.6 102120 54
2011-11-18 07:47:55 51°24.428 2°43.728 6 304 7.6 102120 54
2011-11-18 07:48:00 51°24.435 2°43.716 3.8 264 7.6 102120 53
2011-11-18 07:48:06 51°24.443 2°43.701 4.4 285 7.6 102120 53
2011-11-18 07:48:11 51°24.449 2°43.689 4.3 263 7.6 102120 56
2011-11-18 07:48:16 51°24.455 2°43.678 5.9 305 7.6 102120 56
2011-11-18 07:48:20 51°24.46 2°43.669 5.3 264 7.6 102130 53
2011-11-18 07:48:26 51°24.467 2°43.656 3.9 304 7.6 102130 53
2011-11-18 07:48:31 51°24.472 2°43.646 6.1 261 7.6 102120 55
2011-11-18 07:48:36 51°24.477 2°43.635 5.1 285 7.6 102120 55
2011-11-18 07:48:40 51°24.481 2°43.627 5 265 7.6 102130 53
2011-11-18 07:48:45 51°24.485 2°43.617 4.1 304 7.6 102130 53
2011-11-18 07:48:51 51°24.491 2°43.606 5.8 265 7.6 102130 52
2011-11-18 07:48:56 51°24.496 2°43.597 4.6 308 7.6 102130 52
2011-11-18 07:49:00 51°24.499 2°43.59 5.4 267 7.6 102120 55
2011-11-18 07:49:06 51°24.504 2°43.58 4.5 286 7.6 102120 55
2011-11-18 07:49:10 51°24.508 2°43.574 4.3 267 7.6 102120 54
2011-11-18 07:49:16 51°24.513 2°43.564 4.1 285 7.6 102120 54
2011-11-18 07:49:20 51°24.516 2°43.559 5.3 270 7.6 102120 54
2011-11-18 07:49:25 51°24.52 2°43.552 5.5 59 7.6 102120 54
2011-11-18 07:49:30 51°24.524 2°43.546 6 27 7.5 102120 55
2011-11-18 07:49:35 51°24.528 2°43.541 4.2 58 7.5 102120 55
2011-11-18 07:49:40 51°24.532 2°43.536 5.1 27 7.5 102120 55
2011-11-18 07:49:46 51°24.537 2°43.531 5.2 57 7.5 102120 55
2011-11-18 07:49:51 51°24.54 2°43.528 6.1 26 7.5 102120 56
2011-11-18 07:49:56 51°24.544 2°43.525 5.3 77 7.5 102120 56
2011-11-18 07:50:00 51°24.547 2°43.523 6 26 7.5 102130 53